Regional Weather Roundup
Issued by NWS

Home | Current Version | Previous Version | Text Only | Print | Product List | Glossary On
Versions: 1 2 3 4 5 6 7 8 9 10 11 12 13 14 15 16 17 18 19 20 21 22 23 24 25 26 27 28 29 30 31 32 33 34 35 36 37 38 39 40 41 42 43 44 45 46 47 48 49 50
000
ASUS46 KLOX 102213
RWRCA

SOUTHERN CALIFORNIA WEATHER ROUNDUP
NATIONAL WEATHER SERVICE OXNARD CALIFORNIA
200 PM PST WED FEB 10 2016

NOTE: "FAIR" INDICATES FEW OR NO CLOUDS BELOW 12,000 FEET WITH NO
SIGNIFICANT WEATHER AND/OR OBSTRUCTIONS TO VISIBILITY.

  -  STATIONS PRECEEDED BY AN ASTERISK (*) ARE NOT NWS OR FAA
     STATIONS AND ARE NOT SUBJECT TO NWS AND FAA QUALITY CONTROL.

CAZ041-042-087-102300-
LA AND ORANGE COUNTY COASTAL AREAS


CITY           SKY/WX    TMP DP  RH WIND       PRES   REMARKS
L.A. DOWNTOWN  SUNNY     85  25  11 CALM      30.06F
L.A. AIRPORT   MOSUNNY   76  44  32 W10       30.08F
LONG BEACH     SUNNY     81  40  23 S7        30.07F

CITY           SKY/WX    TMP DP  RH WIND       PRES   REMARKS
FULLERTON      SUNNY     89  29  11 W3        30.05F
HAWTHORNE      SUNNY     86  36  16 W12       30.07F
*REDONDO BEACH   N/A     78  44  29 CALM      30.08F
SANTA ANA      PTSUNNY   80  36  20 S9        30.07F
STA MONICA APT SUNNY     76  44  32 SW7       30.08F
*STA MON PIER    N/A     69  58  68 SW2       30.02S
TORRANCE       MOSUNNY   86  45  23 NW9       30.08F
*UCLA            N/A     81  32  17 SW12      30.05F

$$

CAZ547-548-048-102300-
LA COUNTY VALLEYS AND INLAND EMPIRE


CITY           SKY/WX    TMP DP  RH WIND       PRES   REMARKS
BURBANK        SUNNY     86  25  11 CALM      30.09F
VAN NUYS       SUNNY     86  28  12 VRB3      30.09F

CITY           SKY/WX    TMP DP  RH WIND       PRES   REMARKS
CORONA AIRPORT CLEAR     89  25  10 VRB3      30.08F
*CHATSWORTH      N/A     88  24  10 NE7       30.08F
CHINO          PTSUNNY   89  29  11 VRB7      30.09F
MARCH AFB      MOSUNNY   85  19   8 E9        30.12F
ONTARIO        MOSUNNY   85  22  10 CALM      30.09F
*PASADENA        N/A     88  32  13 E3          N/A
POMONA         SUNNY     82  25  12 VRB5      30.14F
RIVERSIDE      MOSUNNY   88  20   8 VRB6      30.09F
SAN BERNARDINO MOSUNNY   84  21  10 CALM      30.12
*SAN GABRIEL     N/A     88  24  10 CALM      30.12F
*SAUGUS          N/A     82  22  11 N7          N/A
*WHITEMAN AP   SUNNY     84  23  10 SE6       30.12F
*WHITTIER HILL   N/A     87  28  12 SW6         N/A
*WOODLAND HILL   N/A     90  25   9 NE2         N/A

$$

CAZ054-055-102300-
LA AND SAN BERNARDINO COUNTY MOUNTAINS


CITY           SKY/WX    TMP DP  RH WIND       PRES   REMARKS
*BIG BEAR AIRP PTCLDY    63  10  13 E5        30.39F
SANDBERG       SUNNY    N/A N/A N/A E15       30.30F

$$

CAZ028-029-059-060-099-102300-
ANTELOPE VALLEY AND SURROUNDING AREAS


CITY           SKY/WX    TMP DP  RH WIND       PRES   REMARKS
LANCASTER      SUNNY     73  26  17 VRB3      30.23F
PALMDALE       SUNNY     71  25  17 VRB7      30.24F
*POPPY PARK      N/A     71  30  22 NE3         N/A

CITY           SKY/WX    TMP DP  RH WIND       PRES   REMARKS
29 PALMS       PTSUNNY   77  19  11 NE3       30.27F
BARSTOW/DAGGET SUNNY     74  23  15 NE9       30.21F
BISHOP         SUNNY     72  15  11 VRB3      30.27F
CHINA LAKE     MOSUNNY   73  27  18 CALM      30.22F
MOJAVE         SUNNY     70  25  18 CALM      30.25F
NEEDLES        MOSUNNY   77  27  15 VRB7      30.18F
VICTORVILLE    SUNNY     73  19  13 CALM      30.24F

$$

CAZ039-040-102300-
VENTURA AND SANTA BARBARA COUNTY COAST


CITY           SKY/WX    TMP DP  RH WIND       PRES   REMARKS
CAMARILLO      SUNNY     78  39  24 W12       30.08S
OXNARD AIRPORT SUNNY     71  51  49 W12       30.09S
*POINT MUGU    MOSUNNY   70  51  51 W10       30.10S
SBA APT/GOLETA SUNNY     78  34  20 W7        30.09F
*SANTA BARBARA   N/A     85  37  18 NE5       30.16S
*VENTURA         N/A     77  44  30 W8        30.06S

$$

CAZ044-045-102300-
VENTURA COUNTY VALLEYS


CITY           SKY/WX    TMP DP  RH WIND       PRES   REMARKS
*SIMI VALLEY     N/A     86  32  14 NE2       30.01F
*WESTLAKE VILL   N/A     89  44  21 SW1       30.07F
*OJAI            N/A     89  36  15 W1        30.03S
*FILLMORE        N/A     90  41  18 SE3       29.95F

$$

CAZ053-102300-
VENTURA COUNTY MOUNTAINS


CITY           SKY/WX    TMP DP  RH WIND       PRES   REMARKS
*LOCKWOOD VLY    N/A     72   9   8 MISG        N/A
*ROSE VALLEY     N/A     82  25  12 MISG        N/A

$$

CAZ034-035-036-102300-
CENTRAL COAST AND SANTA YNEZ VALLEY


CITY           SKY/WX    TMP DP  RH WIND       PRES   REMARKS
SAN LUIS OBISP SUNNY     78  55  44 NW14      30.10F
SANTA MARIA    MOSUNNY   75  50  41 NW7       30.13F

CITY           SKY/WX    TMP DP  RH WIND       PRES   REMARKS
*CAL POLY SLO    N/A     79  52  38 VRB12       N/A
*PISMO BEACH     N/A     64  55  73 SW3       30.11F
*SANTA YNEZ    FAIR      81  37  21 W9        30.11F

$$

CAZ037-038-051-102300-
SAN LUIS OBISPO COUNTY INTERIOR AND CUYAMA VALLEY


CITY           SKY/WX    TMP DP  RH WIND       PRES   REMARKS
*CUYAMA          N/A     75  34  22 N8        30.11F
PASO ROBLES    SUNNY     75  47  36 NW8       30.16F

$$

CAZ032-033-061-102300-
SOUTHERN DESERTS


CITY           SKY/WX    TMP DP  RH WIND       PRES   REMARKS
BLYTHE         MOSUNNY   83  26  12 VRB3      30.14F
IMPERIAL       MOSUNNY   84  25  11 CALM      30.11F
PALM SPRINGS   MOSUNNY   83  24  11 SE5       30.14F
THERMAL        MOSUNNY   86  26  11 E6        30.10F

$$

ELSEWHERE ACROSS THE WESTERN UNITED STATES AND MEXICO


CITY           SKY/WX    TMP DP  RH WIND       PRES   REMARKS
DENVER, CO     MOSUNNY   65  19  17 NW17G23   30.08F
GRAND CANYON,  MOSUNNY   63   7  11 W5        30.39F
HONOLULU, HI   MOSUNNY   77  59  53 S8        30.08F
KAHULUI, MAUI  MOSUNNY   81  59  47 NE9G17    30.07F
LAKE TAHOE, CA PTSUNNY   49  25  39 NE7       30.40S
LAS VEGAS, NV  MOSUNNY   69  24  18 NE5       30.20F
MAMMOTH LAKES, FAIR      61   7  11 SE6       30.40F
MEXICO CITY, M CLOUDY    57  32  38 VRB3      30.39F
PHOENIX, AZ    PTSUNNY   83  23  11 CALM      30.12F
PORTLAND, OR   LGT RAIN  55  43  63 E7        30.28S
RENO, NV       PTSUNNY   59  28  30 NE3       30.34F
SALT LAKE CITY PTSUNNY   33  28  81 NW6       30.43F HAZE    WCI  28
SAN DIEGO, CA  MOSUNNY   85  26  11 VRB7      30.08F
SAN FRANCISCO, PTSUNNY   61  53  75 N6        30.20F
SAN JOSE, CA   MOSUNNY   71  50  47 NW6       30.19F
SEATTLE, WA    PTSUNNY   53  45  74 SE6       30.23F
TIJUANA, MEX   MOSUNNY   82  27  13 W9        30.11F

$$

STATION/POSITION TIME  TEMP    WIND        PRES    VSBY  WAVE
                       AIR SEA DIR/SP/G                  HT/PER
                 (UTC) (F)     (DEG/KT/KT) (MB)    (MI)  (FT/S)
POINT ARGUELLO B NOT AVBL
WEST SANTA BARBA 2150   59 58  320/ 12/ 14 1019.0F         5/14
POINT CONCEPTION NOT AVBL
EAST SANTA BARBA 2100   61 59  240/  6/  8 1019.8F
SANTA MONICA BAY 2150   66 63  250/  2/  2 1019.0F         3/13


USA.gov is the U.S. government's official web portal to all federal, state and local government web resources and services.